{"data":{"norad_id":53034,"intl_designator":"2022-076BA","name":"STARLINK-4151","alt_names":[],"object_type":"PAYLOAD","status":"ACTIVE","operator":null,"country":"US","launch_date":"2022-07-07","launch_site_code":"AFETR","launch_vehicle":null,"mission":null,"orbit_class":"UNKNOWN","rcs_meters":null,"size_class":null,"mass_kg":null,"dimensions":null,"purposes":["comms"],"wikipedia_slug":null,"has_3d_model":false,"image_url":null,"decayed_at":null,"tle_current":{"epoch":"2026-09-19T14:29:45.439296Z","epoch_age_seconds":146875,"freshness":"FRESH","line1":"1 53034U 22076BA  26262.60399814  .00001856  00000+0  71527-4 0  9995","line2":"2 53034  53.1595 271.9985 0001311  84.1741 275.9410 15.31716777232557","mean_motion":15.31716777,"eccentricity":0.0001311,"inclination_deg":53.1595,"raan_deg":271.9985,"arg_perigee_deg":84.1741,"mean_anomaly_deg":275.941,"bstar":7.1527e-5,"rev_number":23255,"period_min":94.012158228127,"perigee_km":469.79210310049,"apogee_km":471.58786553578,"semimajor_km":6848.8269843181,"source":"CELESTRAK","updated_at":"2026-09-20T09:00:40.148705Z"}}}